Location: Stamford Observatory
(41.1241°N, 73.5498°W)
Time: 19:39:00
(UTC-05:00)

Daily predictions for brighter satellites

Satellite Brightness Start Highest point End
(mag) Time Altitude Azimuth Time Altitude Azimuth Time Altitude Azimuth
Cosmos 1992 Rocket 4.4 17:19:14 10° SSW 17:24:25 69° WNW 17:29:37 10° NNE
COSMO-SKYMED 1 3.4 17:21:01 10° NE 17:24:52 30° E 17:28:42 10° SSE
Cosmos 1076 Rocket 3.7 17:21:58 10° S 17:26:12 51° E 17:30:28 10° NNE
KORONAS-FOTON 4.2 17:24:02 10° SSW 17:27:48 67° W 17:31:35 10° N
Cosmos 1346 Rocket 4.2 17:25:35 10° NNE 17:28:11 17° ENE 17:30:46 10° ESE
Cosmos 1295 Rocket 4.5 17:22:51 10° N 17:28:59 82° E 17:35:08 10° S
Cosmos 1315 Rocket 3.4 17:26:53 10° SSE 17:30:27 34° E 17:34:02 10° NNE
ATLAS 2AS CENTAUR R/B 3.5 17:24:03 10° NW 17:31:52 66° WSW 17:39:01 10° SSE
USA 116 4.1 17:29:41 10° NNE 17:34:02 67° ESE 17:38:53 10° S
H-2A R/B 4.5 17:32:28 10° E 17:34:21 13° ENE 17:36:16 10° NE
Cosmos 1943 3.9 17:30:50 10° SW 17:36:19 54° WNW 17:41:51 10° NNE
Geosat 4.1 17:31:45 10° NNE 17:36:48 84° WNW 17:41:49 10° SSW
Cosmos 968 Rocket 3.5 17:32:32 10° NNW 17:37:43 86° ENE 17:42:49 10° SSE
Cosmos 44 Rocket 3.8 17:33:44 10° S 17:38:02 39° ESE 17:42:26 10° NE
Cosmos 1455 3.8 17:40:23 10° NE 17:42:38 15° ENE 17:44:52 10° ESE
Cosmos 1328 Rocket 4.5 17:42:59 10° NNE 17:46:41 26° ENE 17:50:19 10° SE
BREEZE M DEB (TANK) 4.3 17:44:05 10° WSW 17:48:38 76° NNW 18:06:06 12° ENE
IRS-1A Rocket 4.2 17:46:22 10° SSE 17:51:53 85° ENE 17:57:33 10° NNW
Cosmos 2366 rocket 4.0 17:47:01 10° N 17:53:14 66° E 17:59:21 10° SSE
SeaSat 1 4.3 17:49:56 10° S 17:54:26 35° WSW 17:58:58 10° NW
Cosmos 2098 Rocket 4.3 17:49:26 10° N 17:54:27 38° E 18:00:30 10° SSE
NOSS 3-4 (A) 3.9 17:47:45 10° NNW 17:54:42 60° NE 18:02:09 10° SE
NOSS 3-4 (C) 3.9 17:47:52 10° NNW 17:54:49 59° NE 18:02:15 10° SE
Cosmos 1328 3.8 17:51:38 10° S 17:55:36 66° E 17:59:36 10° NNE
Cosmos 1400 Rocket 4.0 17:54:25 10° SSW 17:58:20 47° WNW 18:02:19 10° N
Tiangong 1 0.3 17:57:55 10° WNW 18:00:25 89° NE 18:01:43 24° ESE
ALOS 2.2 17:55:53 10° SSE 18:00:29 65° ENE 18:05:08 10° N
Cosmos 1766 Rocket 3.4 17:57:08 10° S 18:01:25 72° E 18:05:44 10° NNE
EO 1 Del DPAF 3.6 17:57:46 10° NNE 18:01:27 44° E 18:05:07 10° S
Cosmos 1626 2.2 17:58:30 10° S 18:02:06 53° E 18:05:45 10° NNE
Landsat 4 3.6 18:02:56 10° NNE 18:06:41 73° ESE 18:10:23 10° S
MOS 1 4.2 18:03:20 10° SSE 18:08:58 80° ENE 18:14:38 10° NNW
Meteor 2-2 Rocket 4.2 18:04:07 10° N 18:09:52 79° E 18:15:31 10° SSE
MONITOR-E 4.0 18:06:55 10° SSE 18:09:58 87° ENE 18:13:02 10° N
Nadezhda 3 Rocket 4.3 18:05:33 10° SSE 18:11:27 44° E 18:17:25 10° NNE
NOAA 12 4.0 18:06:21 10° SSE 18:11:32 72° ENE 18:16:47 10° N
SKYMED 2 3.7 18:08:42 10° N 18:13:03 78° WNW 18:17:22 10° SSW
Cosmos 1656 Rocket 3.6 18:08:10 10° NNW 18:13:41 86° ENE 18:19:14 10° SSE
Cosmos 1703 3.3 18:14:19 10° S 18:18:11 54° E 18:22:01 10° NNE
YAOGAN 1 3.7 18:15:43 10° S 18:19:52 47° W 18:24:04 10° NNW
Cosmos 1300 4.4 18:17:05 10° NNW 18:20:37 36° W 18:24:08 10° SSW
Cosmos 1151 Rocket 3.4 18:17:40 10° N 18:21:48 39° ENE 18:25:54 10° SSE
ERS-2 2.1 18:18:24 10° SSE 18:22:02 61° ENE 18:25:41 10° N
Cosmos 1943 Rocket 4.1 18:17:44 10° NW 18:22:40 32° WSW 18:27:31 10° SSW
CZ-4C R/B 3.9 18:23:00 10° SE 18:24:11 13° SE 18:24:11 13° SE
SL-24 R/B - RUBIN 2 3.9 18:23:05 10° NW 18:27:33 66° WSW 18:31:47 10° SSE
Cosmos 2058 2.8 18:29:15 10° S 18:33:23 65° E 18:36:33 17° NNE
Cosmos 1934 Rocket 4.5 18:31:13 10° N 18:37:04 37° ENE 18:42:53 10° SE
Thor Agena Rocket 4.0 18:35:28 29° NE 18:37:23 40° E 18:42:16 10° SSE
Cosmos 909 Rocket 4.1 18:30:54 10° NNW 18:37:40 57° NE 18:42:13 19° SE
OAO 3 Rocket 4.4 18:37:23 10° WSW 18:41:35 33° SSW 18:43:58 21° SE
FENGYUN 3A 4.4 18:37:29 10° S 18:42:42 54° W 18:47:58 10° NNW
Cosmos 371 Rocket 3.2 18:40:03 10° S 18:44:48 65° ESE 18:46:37 36° NE
Cosmos 44 4.2 18:41:05 10° WSW 18:45:07 39° NW 18:48:03 18° N
Cosmos 2151 3.0 18:48:12 10° S 18:52:28 81° W 18:55:25 20° N
Cosmos 1515 Rocket 3.5 18:48:41 10° N 18:53:03 83° W 18:57:22 10° S
Cosmos 2239 Rocket 4.3 18:48:08 10° N 18:54:16 66° E 19:00:21 10° SSE
Cosmos 1500 Rocket 3.8 19:01:00 10° SSW 19:05:27 70° W 19:07:50 27° N
PKM 3.9 19:04:08 10° NW 19:06:37 69° NW 19:06:37 69° NW
H-2A R/B 3.8 19:04:32 10° S 19:08:11 44° W 19:11:54 10° NNW
USA 81 4.3 19:04:43 10° SSW 19:09:57 68° W 19:15:14 10° N
COSMOS 2406 3.6 19:04:23 10° SW 19:10:04 63° WNW 19:13:27 25° N
Meteor 2-15 4.5 19:07:48 10° S 19:13:56 80° W 19:20:04 10° N
Cosmos 2228 Rocket 4.3 19:11:57 10° NNW 19:16:18 43° W 19:20:38 10° SSW
Cosmos 1455 3.8 19:14:56 10° NNW 19:18:27 35° W 19:21:55 10° SSW
Cosmos 2208 Rocket 3.9 19:13:51 10° SSW 19:19:07 87° WNW 19:19:40 73° N
GEOS 3 Rocket 3.7 19:35:23 75° WSW 19:35:23 75° WSW 19:40:37 10° NW
Lacrosse 5 3.5 19:40:32 10° SSW 19:42:42 25° SSW 19:42:42 25° SSW
CZ-4C R/B 4.2 20:08:10 10° SW 20:09:27 18° SW 20:09:27 18° SW
